sat.trackr.live / text

‹ back to catalog

ONEWEB-0176

NORAD 48210 · 2021-031A

PAYLOAD ACTIVE UNKNOWN

§ Identity

Operator
Country
UK
Launch date
2021-04-25
Launch site
VOSTO
Launch vehicle
Mass (kg)
RCS (m²)

Purposes: comms

External: N2YO · Heavens-Above · Gunter

§ Orbital elements

Epoch: 2026-09-08T14:28:15.139200Z

Period
109.55 min
Inclination
87.8901°
Eccentricity
0.0001930
Mean motion
13.14501345 rev/d
Perigee alt
1,204.3 km
Apogee alt
1,207.3 km
Semi-major
7,583.9 km
B*
3.5002e-4
RAAN
273.0655°
Arg perigee
87.0824°
Mean anomaly
273.0527°
Rev number
25,927

§ Raw data

ONEWEB-01761 48210U 21031A   26251.60295300  .00000143  00000+0  35002-3 0  99932 48210  87.8901 273.0655 0001930  87.0824 273.0527 13.14501345259278

JSON: /api/v1/satellites/48210 · /tle

For live sub-satellite position, see the globe view (requires WebGL).

§ Visibility from observer

Set your observer location to see the next 7 days of passes ≥ 10°. The values pass through the URL so the page stays shareable.

No JS? Fill the form by hand. The geolocation button needs JavaScript.